Time,TemperatureF,DewpointF,PressureIn,WindDirection,WindDirectionDegrees,WindSpeedMPH,WindSpeedGustMPH,Humidity,HourlyPrecipIn,Conditions,Clouds,dailyrainin,SoftwareType,DateUTC
2013-05-17 00:01:00,62.1,32.6,29.68,SW,218,0.0,0.0,33,0.00,,CLR,0.00,VWS V14.00,2013-05-17 04:01:00,
2013-05-17 00:02:00,62.1,32.6,29.68,SW,218,0.0,0.0,33,0.00,,CLR,0.00,VWS V14.00,2013-05-17 04:02:00,
2013-05-17 00:03:00,62.1,32.6,29.68,SW,218,0.0,0.0,33,0.00,,CLR,0.00,VWS V14.00,2013-05-17 04:03:00,
2013-05-17 00:08:00,61.7,33.1,29.68,SW,218,0.0,0.0,34,0.00,,CLR,0.00,VWS V14.00,2013-05-17 04:08:00,
2013-05-17 00:13:00,61.5,32.9,29.68,South,174,0.0,0.0,34,0.00,,CLR,0.00,VWS V14.00,2013-05-17 04:13:00,
2013-05-17 00:18:00,61.3,33.5,29.68,South,174,0.0,0.0,35,0.00,,CLR,0.00,VWS V14.00,2013-05-17 04:18:00,
2013-05-17 00:23:00,61.0,33.2,29.68,South,174,0.0,0.0,35,0.00,,CLR,0.00,VWS V14.00,2013-05-17 04:23:00,
2013-05-17 00:28:00,60.6,32.8,29.68,South,174,0.0,0.0,35,0.00,,CLR,0.00,VWS V14.00,2013-05-17 04:28:00,
2013-05-17 00:33:00,60.4,33.4,29.68,South,174,0.0,0.0,36,0.00,,CLR,0.00,VWS V14.00,2013-05-17 04:33:00,
2013-05-17 00:38:00,60.1,32.4,29.68,South,174,0.0,0.0,35,0.00,,CLR,0.00,VWS V14.00,2013-05-17 04:38:00,
2013-05-17 00:43:00,59.7,32.7,29.68,South,174,0.0,0.0,36,0.00,,CLR,0.00,VWS V14.00,2013-05-17 04:43:00,
2013-05-17 00:48:00,59.5,32.6,29.68,South,174,0.0,0.0,36,0.00,,CLR,0.00,VWS V14.00,2013-05-17 04:48:00,
2013-05-17 00:53:00,59.4,32.4,29.68,South,174,0.0,0.0,36,0.00,,CLR,0.00,VWS V14.00,2013-05-17 04:53:00,
2013-05-17 00:58:00,59.2,32.3,29.68,South,174,0.0,0.0,36,0.00,,CLR,0.00,VWS V14.00,2013-05-17 04:58:00,
2013-05-17 01:03:00,59.0,32.8,29.68,South,174,0.0,0.0,37,0.00,,CLR,0.00,VWS V14.00,2013-05-17 05:03:00,
2013-05-17 01:08:00,58.8,32.6,29.68,South,174,0.0,0.0,37,0.00,,CLR,0.00,VWS V14.00,2013-05-17 05:08:00,
2013-05-17 01:13:00,58.5,32.3,29.68,South,174,0.0,0.0,37,0.00,,CLR,0.00,VWS V14.00,2013-05-17 05:13:00,
2013-05-17 01:18:00,58.3,32.2,29.68,South,174,0.0,0.0,37,0.00,,CLR,0.00,VWS V14.00,2013-05-17 05:18:00,
2013-05-17 01:23:00,58.1,32.0,29.68,South,174,0.0,0.0,37,0.00,,CLR,0.00,VWS V14.00,2013-05-17 05:23:00,
2013-05-17 01:28:00,57.7,31.7,29.68,South,174,0.0,0.0,37,0.00,,CLR,0.00,VWS V14.00,2013-05-17 05:28:00,
2013-05-17 01:33:00,57.6,32.2,29.68,South,174,0.0,0.0,38,0.00,,CLR,0.00,VWS V14.00,2013-05-17 05:33:00,
2013-05-17 01:38:00,57.2,32.5,29.68,South,174,0.0,0.0,39,0.00,,CLR,0.00,VWS V14.00,2013-05-17 05:38:00,
2013-05-17 01:43:00,57.0,32.3,29.68,South,174,0.0,0.0,39,0.00,,CLR,0.00,VWS V14.00,2013-05-17 05:43:00,
2013-05-17 01:48:00,56.8,32.8,29.68,South,174,0.0,0.0,40,0.00,,CLR,0.00,VWS V14.00,2013-05-17 05:48:00,
2013-05-17 01:53:00,56.7,32.6,29.68,South,174,0.0,0.0,40,0.00,,CLR,0.00,VWS V14.00,2013-05-17 05:53:00,
2013-05-17 01:58:00,56.5,33.1,29.71,South,174,0.0,0.0,41,0.00,,CLR,0.00,VWS V14.00,2013-05-17 05:58:00,
2013-05-17 02:03:00,56.1,32.8,29.71,South,174,0.0,0.0,41,0.00,,CLR,0.00,VWS V14.00,2013-05-17 06:03:00,
2013-05-17 02:08:00,55.9,32.6,29.71,South,174,0.0,0.0,41,0.00,,CLR,0.00,VWS V14.00,2013-05-17 06:08:00,
2013-05-17 02:13:00,55.8,33.0,29.71,South,174,0.0,0.0,42,0.00,,CLR,0.00,VWS V14.00,2013-05-17 06:13:00,
2013-05-17 02:18:00,55.6,31.7,29.71,South,174,0.0,0.0,40,0.00,,CLR,0.00,VWS V14.00,2013-05-17 06:18:00,
2013-05-17 02:23:00,55.4,31.5,29.71,South,174,0.0,0.0,40,0.00,,CLR,0.00,VWS V14.00,2013-05-17 06:23:00,
2013-05-17 02:28:00,55.0,31.2,29.71,South,174,0.0,0.0,40,0.00,,CLR,0.00,VWS V14.00,2013-05-17 06:28:00,
2013-05-17 02:33:00,54.9,31.0,29.71,South,174,0.0,0.0,40,0.00,,CLR,0.00,VWS V14.00,2013-05-17 06:33:00,
2013-05-17 02:39:00,54.7,30.9,29.71,South,174,0.0,0.0,40,0.00,,CLR,0.00,VWS V14.00,2013-05-17 06:39:00,
2013-05-17 02:44:00,54.7,30.9,29.71,South,174,0.0,0.0,40,0.00,,CLR,0.00,VWS V14.00,2013-05-17 06:44:00,
2013-05-17 02:49:00,54.5,30.7,29.71,South,174,0.0,0.0,40,0.00,,CLR,0.00,VWS V14.00,2013-05-17 06:49:00,
2013-05-17 02:54:00,54.1,31.0,29.71,South,174,0.0,0.0,41,0.00,,CLR,0.00,VWS V14.00,2013-05-17 06:54:00,
2013-05-17 02:59:00,54.0,32.0,29.71,South,174,0.0,0.0,43,0.00,,CLR,0.00,VWS V14.00,2013-05-17 06:59:00,
2013-05-17 03:04:00,54.0,32.0,29.71,South,174,0.0,0.0,43,0.00,,CLR,0.00,VWS V14.00,2013-05-17 07:04:00,
2013-05-17 03:09:00,54.0,32.6,29.71,South,174,0.0,0.0,44,0.00,,CLR,0.00,VWS V14.00,2013-05-17 07:09:00,
2013-05-17 03:14:00,54.1,31.6,29.74,South,174,0.0,0.0,42,0.00,,CLR,0.00,VWS V14.00,2013-05-17 07:14:00,
2013-05-17 03:19:00,54.3,31.1,29.74,South,174,0.0,0.0,41,0.00,,CLR,0.00,VWS V14.00,2013-05-17 07:19:00,
2013-05-17 03:24:00,54.3,30.5,29.74,WSW,258,0.0,0.0,40,0.00,,CLR,0.00,VWS V14.00,2013-05-17 07:24:00,
2013-05-17 03:29:00,54.0,29.6,29.74,SW,218,0.0,0.0,39,0.00,,CLR,0.00,VWS V14.00,2013-05-17 07:29:00,
2013-05-17 03:34:00,54.0,29.6,29.74,WSW,245,0.0,2.7,39,0.00,,CLR,0.00,VWS V14.00,2013-05-17 07:34:00,
2013-05-17 03:39:00,54.1,29.8,29.74,WSW,245,0.0,0.0,39,0.00,,CLR,0.00,VWS V14.00,2013-05-17 07:39:00,
2013-05-17 03:44:00,54.5,29.4,29.74,WSW,245,0.0,0.0,38,0.00,,CLR,0.00,VWS V14.00,2013-05-17 07:44:00,
2013-05-17 03:49:00,54.5,28.8,29.74,SE,126,0.0,0.0,37,0.00,,CLR,0.00,VWS V14.00,2013-05-17 07:49:00,
2013-05-17 03:54:00,54.5,28.8,29.74,SE,127,0.0,0.0,37,0.00,,CLR,0.00,VWS V14.00,2013-05-17 07:54:00,
2013-05-17 03:59:00,54.7,28.9,29.74,South,170,0.0,0.0,37,0.00,,CLR,0.00,VWS V14.00,2013-05-17 07:59:00,
2013-05-17 04:04:00,55.0,29.3,29.74,WNW,288,0.0,2.7,37,0.00,,CLR,0.00,VWS V14.00,2013-05-17 08:04:00,
2013-05-17 04:09:00,55.6,29.1,29.74,WNW,295,0.0,3.1,36,0.00,,CLR,0.00,VWS V14.00,2013-05-17 08:09:00,
2013-05-17 04:14:00,56.1,28.9,29.74,NNW,330,0.0,3.1,35,0.00,,CLR,0.00,VWS V14.00,2013-05-17 08:14:00,
2013-05-17 04:19:00,56.7,28.6,29.74,WNW,287,0.0,0.0,34,0.00,,CLR,0.00,VWS V14.00,2013-05-17 08:19:00,
2013-05-17 04:24:00,56.8,28.8,29.74,West,267,0.0,0.0,34,0.00,,CLR,0.00,VWS V14.00,2013-05-17 08:24:00,
2013-05-17 04:29:00,56.8,28.1,29.77,WSW,254,0.0,0.0,33,0.00,,CLR,0.00,VWS V14.00,2013-05-17 08:29:00,
2013-05-17 04:34:00,56.8,27.3,29.77,WSW,254,0.0,0.0,32,0.00,,CLR,0.00,VWS V14.00,2013-05-17 08:34:00,
2013-05-17 04:39:00,56.8,27.3,29.77,WSW,255,0.0,0.0,32,0.00,,CLR,0.00,VWS V14.00,2013-05-17 08:39:00,
2013-05-17 04:44:00,56.8,27.3,29.77,WNW,291,0.0,3.1,32,0.00,,CLR,0.00,VWS V14.00,2013-05-17 08:44:00,
2013-05-17 04:49:00,56.7,26.4,29.77,WNW,298,0.0,0.0,31,0.00,,CLR,0.00,VWS V14.00,2013-05-17 08:49:00,
2013-05-17 04:54:00,56.3,26.8,29.77,WNW,299,2.7,3.1,32,0.00,,CLR,0.00,VWS V14.00,2013-05-17 08:54:00,
2013-05-17 04:59:00,56.1,26.7,29.77,WNW,299,2.7,2.7,32,0.00,,CLR,0.00,VWS V14.00,2013-05-17 08:59:00,
2013-05-17 05:04:00,55.9,26.5,29.77,WNW,299,2.7,2.7,32,0.00,,CLR,0.00,VWS V14.00,2013-05-17 09:04:00,
2013-05-17 05:09:00,55.9,26.5,29.77,WNW,299,0.0,0.0,32,0.00,,CLR,0.00,VWS V14.00,2013-05-17 09:09:00,
2013-05-17 05:14:00,55.8,26.4,29.80,WNW,299,0.0,0.0,32,0.00,,CLR,0.00,VWS V14.00,2013-05-17 09:14:00,
2013-05-17 05:19:00,55.8,26.4,29.80,WNW,299,0.0,0.0,32,0.00,,CLR,0.00,VWS V14.00,2013-05-17 09:19:00,
2013-05-17 05:24:00,55.6,27.0,29.80,WNW,299,0.0,0.0,33,0.00,,CLR,0.00,VWS V14.00,2013-05-17 09:24:00,
2013-05-17 05:29:00,55.4,27.5,29.80,WNW,299,0.0,0.0,34,0.00,,CLR,0.00,VWS V14.00,2013-05-17 09:29:00,
2013-05-17 05:34:00,55.2,27.4,29.80,West,270,0.0,0.0,34,0.00,,CLR,0.00,VWS V14.00,2013-05-17 09:34:00,
2013-05-17 05:39:00,55.0,27.9,29.80,WNW,287,0.0,0.0,35,0.00,,CLR,0.00,VWS V14.00,2013-05-17 09:39:00,
2013-05-17 05:44:00,55.0,27.9,29.80,WNW,291,0.0,0.0,35,0.00,,CLR,0.00,VWS V14.00,2013-05-17 09:44:00,
2013-05-17 05:49:00,55.0,27.9,29.80,WNW,291,0.0,0.0,35,0.00,,CLR,0.00,VWS V14.00,2013-05-17 09:49:00,
2013-05-17 05:54:00,54.9,27.8,29.80,WNW,291,0.0,0.0,35,0.00,,CLR,0.00,VWS V14.00,2013-05-17 09:54:00,
2013-05-17 05:59:00,54.7,28.3,29.80,WNW,293,0.0,0.0,36,0.00,,CLR,0.00,VWS V14.00,2013-05-17 09:59:00,
2013-05-17 06:05:00,54.5,28.1,29.80,WNW,293,0.0,0.0,36,0.00,,CLR,0.00,VWS V14.00,2013-05-17 10:05:00,
2013-05-17 06:10:00,54.5,28.8,29.80,WNW,293,0.0,0.0,37,0.00,,CLR,0.00,VWS V14.00,2013-05-17 10:10:00,
2013-05-17 06:15:00,54.5,28.1,29.80,WNW,293,0.0,0.0,36,0.00,,CLR,0.00,VWS V14.00,2013-05-17 10:15:00,
2013-05-17 06:25:00,54.7,28.3,29.80,WNW,292,0.0,0.0,36,0.00,,CLR,0.00,VWS V14.00,2013-05-17 10:25:00,
2013-05-17 06:30:00,55.0,28.6,29.83,WNW,284,0.0,0.0,36,0.00,,CLR,0.00,VWS V14.00,2013-05-17 10:30:00,
2013-05-17 06:35:00,55.2,28.8,29.83,WNW,297,0.0,0.0,36,0.00,,CLR,0.00,VWS V14.00,2013-05-17 10:35:00,
2013-05-17 06:40:00,55.2,28.8,29.83,WNW,299,0.0,0.0,36,0.00,,CLR,0.00,VWS V14.00,2013-05-17 10:40:00,
2013-05-17 06:45:00,55.6,28.4,29.83,NW,308,3.1,3.6,35,0.00,,CLR,0.00,VWS V14.00,2013-05-17 10:45:00,
2013-05-17 06:50:00,55.9,28.7,29.83,NW,318,0.0,2.7,35,0.00,,CLR,0.00,VWS V14.00,2013-05-17 10:50:00,
2013-05-17 06:56:00,56.1,28.1,29.83,NNE,26,7.4,7.4,34,0.00,,CLR,0.00,VWS V14.00,2013-05-17 10:56:00,
2013-05-17 07:01:00,56.5,27.0,29.83,West,270,0.0,3.1,32,0.00,,CLR,0.00,VWS V14.00,2013-05-17 11:01:00,
2013-05-17 07:06:00,56.7,26.4,29.83,NW,320,3.6,3.6,31,0.00,,CLR,0.00,VWS V14.00,2013-05-17 11:06:00,
2013-05-17 07:11:00,57.0,25.9,29.83,NW,312,4.0,4.0,30,0.00,,CLR,0.00,VWS V14.00,2013-05-17 11:11:00,
2013-05-17 07:16:00,57.0,25.9,29.83,WNW,296,3.1,3.1,30,0.00,,CLR,0.00,VWS V14.00,2013-05-17 11:16:00,
2013-05-17 07:21:00,56.8,25.8,29.83,WNW,303,4.0,4.0,30,0.00,,CLR,0.00,VWS V14.00,2013-05-17 11:21:00,
2013-05-17 07:26:00,57.0,25.9,29.83,NW,322,0.0,0.0,30,0.00,,CLR,0.00,VWS V14.00,2013-05-17 11:26:00,
2013-05-17 07:31:00,56.8,25.8,29.83,NW,317,3.6,3.6,30,0.00,,CLR,0.00,VWS V14.00,2013-05-17 11:31:00,
2013-05-17 07:36:00,57.0,25.9,29.83,SW,219,0.0,3.1,30,0.00,,CLR,0.00,VWS V14.00,2013-05-17 11:36:00,
2013-05-17 07:41:00,56.8,24.9,29.83,NW,312,0.0,0.0,29,0.00,,CLR,0.00,VWS V14.00,2013-05-17 11:41:00,
2013-05-17 07:46:00,56.8,24.1,29.83,North,6,3.1,5.8,28,0.00,,CLR,0.00,VWS V14.00,2013-05-17 11:46:00,
2013-05-17 07:51:00,56.8,24.1,29.83,NNW,327,0.0,5.4,28,0.00,,CLR,0.00,VWS V14.00,2013-05-17 11:51:00,
2013-05-17 07:56:00,57.0,24.3,29.83,NNW,328,3.1,4.5,28,0.00,,CLR,0.00,VWS V14.00,2013-05-17 11:56:00,
2013-05-17 08:01:00,57.6,24.7,29.83,WNW,283,0.0,5.4,28,0.00,,CLR,0.00,VWS V14.00,2013-05-17 12:01:00,
2013-05-17 08:06:00,57.9,25.0,29.83,NW,316,0.0,4.0,28,0.00,,CLR,0.00,VWS V14.00,2013-05-17 12:06:00,
2013-05-17 08:11:00,58.1,24.3,29.83,WNW,287,2.7,4.0,27,0.00,,CLR,0.00,VWS V14.00,2013-05-17 12:11:00,
2013-05-17 08:16:00,58.1,24.3,29.83,NW,314,2.7,4.0,27,0.00,,CLR,0.00,VWS V14.00,2013-05-17 12:16:00,
2013-05-17 08:21:00,58.1,24.3,29.83,WSW,244,0.0,2.7,27,0.00,,CLR,0.00,VWS V14.00,2013-05-17 12:21:00,
2013-05-17 08:26:00,58.5,23.7,29.85,SSW,208,0.0,6.3,26,0.00,,CLR,0.00,VWS V14.00,2013-05-17 12:26:00,
2013-05-17 08:31:00,58.5,23.7,29.85,NE,38,0.0,3.6,26,0.00,,CLR,0.00,VWS V14.00,2013-05-17 12:31:00,
2013-05-17 08:36:00,58.5,22.8,29.85,SSE,162,0.0,4.5,25,0.00,,CLR,0.00,VWS V14.00,2013-05-17 12:36:00,
2013-05-17 08:41:00,58.1,23.4,29.88,SSW,213,0.0,0.0,26,0.00,,CLR,0.00,VWS V14.00,2013-05-17 12:41:00,
2013-05-17 08:46:00,58.3,23.6,29.88,SE,138,0.0,3.6,26,0.00,,CLR,0.00,VWS V14.00,2013-05-17 12:46:00,
2013-05-17 08:51:00,58.8,24.0,29.88,NW,318,0.0,0.0,26,0.00,,CLR,0.00,VWS V14.00,2013-05-17 12:51:00,
2013-05-17 08:56:00,59.2,23.4,29.88,NNW,344,0.0,4.0,25,0.00,,CLR,0.00,VWS V14.00,2013-05-17 12:56:00,
2013-05-17 09:01:00,59.5,24.6,29.88,NNW,332,4.0,4.0,26,0.00,,CLR,0.00,VWS V14.00,2013-05-17 13:01:00,
2013-05-17 09:06:00,59.9,24.0,29.88,NNW,337,0.0,0.0,25,0.00,,CLR,0.00,VWS V14.00,2013-05-17 13:06:00,
2013-05-17 09:11:00,60.1,24.2,29.85,WSW,243,0.0,0.0,25,0.00,,CLR,0.00,VWS V14.00,2013-05-17 13:11:00,
2013-05-17 09:16:00,60.4,24.5,29.85,WNW,301,3.6,3.6,25,0.00,,CLR,0.00,VWS V14.00,2013-05-17 13:16:00,
2013-05-17 09:21:00,60.8,24.8,29.85,NNW,341,2.7,2.7,25,0.00,,CLR,0.00,VWS V14.00,2013-05-17 13:21:00,
2013-05-17 09:26:00,60.6,24.6,29.85,SW,231,3.6,3.6,25,0.00,,CLR,0.00,VWS V14.00,2013-05-17 13:26:00,
2013-05-17 09:31:00,60.6,23.6,29.85,WSW,257,3.6,4.5,24,0.00,,CLR,0.00,VWS V14.00,2013-05-17 13:31:00,
2013-05-17 09:36:00,60.8,23.8,29.85,WNW,286,3.1,3.6,24,0.00,,CLR,0.00,VWS V14.00,2013-05-17 13:36:00,
2013-05-17 09:41:00,61.0,24.0,29.85,West,279,2.7,4.0,24,0.00,,CLR,0.00,VWS V14.00,2013-05-17 13:41:00,
2013-05-17 09:46:00,61.2,24.1,29.85,WNW,302,5.4,5.8,24,0.00,,CLR,0.00,VWS V14.00,2013-05-17 13:46:00,
2013-05-17 09:51:00,61.3,24.3,29.85,NW,304,3.6,3.6,24,0.00,,CLR,0.00,VWS V14.00,2013-05-17 13:51:00,
2013-05-17 09:56:00,61.2,24.1,29.88,West,273,3.6,4.9,24,0.00,,CLR,0.00,VWS V14.00,2013-05-17 13:56:00,
2013-05-17 10:01:00,61.3,24.3,29.88,West,281,0.0,5.4,24,0.00,,CLR,0.00,VWS V14.00,2013-05-17 14:01:00,
2013-05-17 10:06:00,61.7,24.6,29.88,NW,313,2.7,3.1,24,0.00,,CLR,0.00,VWS V14.00,2013-05-17 14:06:00,
2013-05-17 10:11:00,61.9,24.7,29.88,WNW,302,3.6,4.5,24,0.00,,CLR,0.00,VWS V14.00,2013-05-17 14:11:00,
2013-05-17 10:16:00,61.9,21.5,29.88,NW,306,4.9,4.9,21,0.00,,CLR,0.00,VWS V14.00,2013-05-17 14:16:00,
2013-05-17 10:21:00,61.9,24.7,29.88,WNW,282,4.0,4.0,24,0.00,,CLR,0.00,VWS V14.00,2013-05-17 14:21:00,
2013-05-17 10:26:00,62.6,25.3,29.88,West,263,0.0,0.0,24,0.00,,CLR,0.00,VWS V14.00,2013-05-17 14:26:00,
2013-05-17 10:31:00,63.0,25.6,29.88,NNW,329,0.0,4.5,24,0.00,,CLR,0.00,VWS V14.00,2013-05-17 14:31:00,
2013-05-17 10:36:00,63.1,22.6,29.88,NNE,32,0.0,4.9,21,0.00,,CLR,0.00,VWS V14.00,2013-05-17 14:36:00,
2013-05-17 10:42:00,63.3,24.9,29.88,NW,308,3.6,4.5,23,0.00,,CLR,0.00,VWS V14.00,2013-05-17 14:42:00,
2013-05-17 10:47:00,63.7,21.9,29.88,WNW,292,3.6,3.6,20,0.00,,CLR,0.00,VWS V14.00,2013-05-17 14:47:00,
2013-05-17 10:52:00,63.9,22.0,29.88,WNW,284,0.0,0.0,20,0.00,,CLR,0.00,VWS V14.00,2013-05-17 14:52:00,
2013-05-17 10:57:00,64.0,25.5,29.88,WNW,298,0.0,0.0,23,0.00,,CLR,0.00,VWS V14.00,2013-05-17 14:57:00,
2013-05-17 11:02:00,64.8,22.8,29.88,NNW,347,0.0,3.1,20,0.00,,CLR,0.00,VWS V14.00,2013-05-17 15:02:00,
2013-05-17 11:07:00,65.1,23.1,29.88,West,271,4.9,7.4,20,0.00,,CLR,0.00,VWS V14.00,2013-05-17 15:07:00,
2013-05-17 11:12:00,65.7,19.7,29.88,West,267,4.5,5.8,17,0.00,,CLR,0.00,VWS V14.00,2013-05-17 15:12:00,
2013-05-17 11:17:00,66.0,20.0,29.88,NNW,328,5.4,5.8,17,0.00,,CLR,0.00,VWS V14.00,2013-05-17 15:17:00,
2013-05-17 11:22:00,66.2,20.1,29.88,West,267,3.1,5.8,17,0.00,,CLR,0.00,VWS V14.00,2013-05-17 15:22:00,
2013-05-17 11:27:00,66.2,20.1,29.88,West,279,3.6,4.9,17,0.00,,CLR,0.00,VWS V14.00,2013-05-17 15:27:00,
2013-05-17 11:32:00,66.6,20.4,29.88,WNW,302,4.9,4.9,17,0.00,,CLR,0.00,VWS V14.00,2013-05-17 15:32:00,
2013-05-17 11:37:00,66.6,17.5,29.88,NW,308,0.0,3.6,15,0.00,,CLR,0.00,VWS V14.00,2013-05-17 15:37:00,
2013-05-17 11:42:00,66.7,17.6,29.88,NW,305,3.6,3.6,15,0.00,,CLR,0.00,VWS V14.00,2013-05-17 15:42:00,
2013-05-17 11:48:00,66.6,17.5,29.88,WNW,296,4.9,5.4,15,0.00,,CLR,0.00,VWS V14.00,2013-05-17 15:48:00,
2013-05-17 11:53:00,66.7,17.6,29.88,WNW,287,2.7,4.9,15,0.00,,CLR,0.00,VWS V14.00,2013-05-17 15:53:00,
2013-05-17 11:58:00,66.9,17.8,29.88,NE,40,3.1,4.9,15,0.00,,CLR,0.00,VWS V14.00,2013-05-17 15:58:00,
2013-05-17 12:03:00,67.1,17.9,29.88,WSW,239,0.0,3.6,15,0.00,,CLR,0.00,VWS V14.00,2013-05-17 16:03:00,
2013-05-17 12:08:00,67.5,18.2,29.88,NW,304,4.0,6.3,15,0.00,,CLR,0.00,VWS V14.00,2013-05-17 16:08:00,
2013-05-17 12:13:00,67.5,13.1,29.88,NNW,328,0.0,4.9,12,0.00,,CLR,0.00,VWS V14.00,2013-05-17 16:13:00,
2013-05-17 12:18:00,68.0,18.7,29.88,West,265,3.1,3.6,15,0.00,,CLR,0.00,VWS V14.00,2013-05-17 16:18:00,
2013-05-17 12:23:00,68.5,13.9,29.88,NW,324,0.0,3.6,12,0.00,,CLR,0.00,VWS V14.00,2013-05-17 16:23:00,
2013-05-17 12:28:00,68.7,14.1,29.88,SE,146,0.0,0.0,12,0.00,,CLR,0.00,VWS V14.00,2013-05-17 16:28:00,
2013-05-17 12:33:00,69.3,14.5,29.88,ESE,120,0.0,0.0,12,0.00,,CLR,0.00,VWS V14.00,2013-05-17 16:33:00,
2013-05-17 12:38:00,69.4,14.6,29.88,WNW,289,3.1,3.1,12,0.00,,CLR,0.00,VWS V14.00,2013-05-17 16:38:00,
2013-05-17 12:43:00,69.6,14.8,29.88,NE,38,3.6,3.6,12,0.00,,CLR,0.00,VWS V14.00,2013-05-17 16:43:00,
2013-05-17 12:48:00,69.6,14.8,29.88,SW,217,3.1,3.1,12,0.00,,CLR,0.00,VWS V14.00,2013-05-17 16:48:00,
2013-05-17 12:53:00,69.6,14.8,29.88,SSW,193,3.6,4.5,12,0.00,,CLR,0.00,VWS V14.00,2013-05-17 16:53:00,
2013-05-17 12:58:00,69.4,14.6,29.88,WSW,250,0.0,0.0,12,0.00,,CLR,0.00,VWS V14.00,2013-05-17 16:58:00,
2013-05-17 13:03:00,70.2,18.8,29.88,NW,317,3.1,4.9,14,0.00,,CLR,0.00,VWS V14.00,2013-05-17 17:03:00,
2013-05-17 13:08:00,70.7,19.2,29.88,NNW,344,0.0,0.0,14,0.00,,CLR,0.00,VWS V14.00,2013-05-17 17:08:00,
2013-05-17 13:13:00,73.2,15.6,29.88,South,170,0.0,0.0,11,0.00,,CLR,0.00,VWS V14.00,2013-05-17 17:13:00,
2013-05-17 13:18:00,75.2,21.0,29.88,West,274,0.0,0.0,13,0.00,,CLR,0.00,VWS V14.00,2013-05-17 17:18:00,
2013-05-17 13:23:00,76.3,15.8,29.88,North,356,0.0,2.7,10,0.00,,CLR,0.00,VWS V14.00,2013-05-17 17:23:00,
2013-05-17 13:29:00,77.4,16.6,29.88,SSE,161,3.6,4.5,10,0.00,,CLR,0.00,VWS V14.00,2013-05-17 17:29:00,
2013-05-17 13:34:00,77.9,17.0,29.88,NW,316,0.0,3.1,10,0.00,,CLR,0.00,VWS V14.00,2013-05-17 17:34:00,
2013-05-17 13:39:00,77.2,16.5,29.88,ESE,105,0.0,3.6,10,0.00,,CLR,0.00,VWS V14.00,2013-05-17 17:39:00,
2013-05-17 13:44:00,76.8,16.2,29.88,NNE,24,2.7,3.1,10,0.00,,CLR,0.00,VWS V14.00,2013-05-17 17:44:00,
2013-05-17 13:49:00,77.2,16.5,29.88,SSE,152,2.7,3.1,10,0.00,,CLR,0.00,VWS V14.00,2013-05-17 17:49:00,
2013-05-17 13:54:00,77.4,16.6,29.88,NW,315,0.0,3.1,10,0.00,,CLR,0.00,VWS V14.00,2013-05-17 17:54:00,
2013-05-17 13:59:00,77.4,16.6,29.88,NE,54,2.7,2.7,10,0.00,,CLR,0.00,VWS V14.00,2013-05-17 17:59:00,
2013-05-17 14:04:00,77.0,16.3,29.88,NNW,343,3.1,4.5,10,0.00,,CLR,0.00,VWS V14.00,2013-05-17 18:04:00,
2013-05-17 14:09:00,77.0,16.3,29.88,NNE,29,3.1,3.6,10,0.00,,CLR,0.00,VWS V14.00,2013-05-17 18:09:00,
2013-05-17 14:14:00,77.0,16.3,29.88,NNW,346,3.1,3.6,10,0.00,,CLR,0.00,VWS V14.00,2013-05-17 18:14:00,
2013-05-17 14:19:00,78.1,17.1,29.88,West,277,2.7,3.1,10,0.00,,CLR,0.00,VWS V14.00,2013-05-17 18:19:00,
2013-05-17 14:24:00,79.0,17.8,29.88,East,88,0.0,0.0,10,0.00,,CLR,0.00,VWS V14.00,2013-05-17 18:24:00,
2013-05-17 14:29:00,79.2,18.0,29.88,NW,310,4.9,6.3,10,0.00,,CLR,0.00,VWS V14.00,2013-05-17 18:29:00,
2013-05-17 14:34:00,80.2,18.8,29.88,East,91,3.1,3.6,10,0.00,,CLR,0.00,VWS V14.00,2013-05-17 18:34:00,
2013-05-17 14:39:00,80.2,18.8,29.88,North,2,2.7,2.7,10,0.00,,CLR,0.00,VWS V14.00,2013-05-17 18:39:00,
2013-05-17 14:44:00,80.6,19.0,29.88,ENE,77,4.5,4.5,10,0.00,,CLR,0.00,VWS V14.00,2013-05-17 18:44:00,
2013-05-17 14:49:00,80.1,18.6,29.88,NW,308,3.1,3.1,10,0.00,,CLR,0.00,VWS V14.00,2013-05-17 18:49:00,
2013-05-17 14:54:00,80.6,19.0,29.88,WNW,295,3.6,5.8,10,0.00,,CLR,0.00,VWS V14.00,2013-05-17 18:54:00,
2013-05-17 15:00:00,81.0,19.3,29.88,NE,35,2.7,4.0,10,0.00,,CLR,0.00,VWS V14.00,2013-05-17 19:00:00,
2013-05-17 15:05:00,80.8,19.2,29.88,NE,37,2.7,4.0,10,0.00,,CLR,0.00,VWS V14.00,2013-05-17 19:05:00,
2013-05-17 15:10:00,80.8,19.2,29.88,SSW,205,0.0,3.1,10,0.00,,CLR,0.00,VWS V14.00,2013-05-17 19:10:00,
2013-05-17 15:15:00,81.1,19.5,29.88,NW,313,3.6,4.5,10,0.00,,CLR,0.00,VWS V14.00,2013-05-17 19:15:00,
2013-05-17 15:20:00,80.6,19.0,29.88,ESE,118,4.0,4.5,10,0.00,,CLR,0.00,VWS V14.00,2013-05-17 19:20:00,
2013-05-17 15:25:00,80.2,18.8,29.88,NNE,30,5.4,5.4,10,0.00,,CLR,0.00,VWS V14.00,2013-05-17 19:25:00,
2013-05-17 15:30:00,80.1,18.6,29.88,West,266,4.0,4.9,10,0.00,,CLR,0.00,VWS V14.00,2013-05-17 19:30:00,
2013-05-17 15:35:00,80.6,19.0,29.88,North,0,2.7,6.3,10,0.00,,CLR,0.00,VWS V14.00,2013-05-17 19:35:00,
2013-05-17 15:40:00,81.3,19.6,29.91,WNW,288,4.0,5.8,10,0.00,,CLR,0.00,VWS V14.00,2013-05-17 19:40:00,
2013-05-17 15:45:00,81.9,20.0,29.91,West,263,3.6,3.6,10,0.00,,CLR,0.00,VWS V14.00,2013-05-17 19:45:00,
2013-05-17 15:50:00,81.5,19.7,29.91,East,98,2.7,4.0,10,0.00,,CLR,0.00,VWS V14.00,2013-05-17 19:50:00,
2013-05-17 15:55:00,80.2,18.8,29.91,NE,52,0.0,4.5,10,0.00,,CLR,0.00,VWS V14.00,2013-05-17 19:55:00,
2013-05-17 16:00:00,79.3,18.1,29.91,ENE,73,2.7,3.1,10,0.00,,CLR,0.00,VWS V14.00,2013-05-17 20:00:00,
2013-05-17 16:05:00,79.3,18.1,29.91,NNE,28,6.3,6.3,10,0.00,,CLR,0.00,VWS V14.00,2013-05-17 20:05:00,
2013-05-17 16:10:00,79.3,18.1,29.91,NW,322,3.6,6.9,10,0.00,,CLR,0.00,VWS V14.00,2013-05-17 20:10:00,
2013-05-17 16:15:00,79.0,17.8,29.91,NNW,334,2.7,4.9,10,0.00,,CLR,0.00,VWS V14.00,2013-05-17 20:15:00,
2013-05-17 16:20:00,78.6,17.5,29.91,WNW,301,0.0,0.0,10,0.00,,CLR,0.00,VWS V14.00,2013-05-17 20:20:00,
2013-05-17 16:25:00,79.5,18.2,29.91,WNW,293,4.0,4.0,10,0.00,,CLR,0.00,VWS V14.00,2013-05-17 20:25:00,
2013-05-17 16:30:00,79.3,18.1,29.91,NW,317,3.6,4.5,10,0.00,,CLR,0.00,VWS V14.00,2013-05-17 20:30:00,
2013-05-17 16:35:00,78.6,17.5,29.91,WNW,284,0.0,0.0,10,0.00,,CLR,0.00,VWS V14.00,2013-05-17 20:35:00,
2013-05-17 16:40:00,78.6,17.5,29.91,North,356,0.0,2.7,10,0.00,,CLR,0.00,VWS V14.00,2013-05-17 20:40:00,
2013-05-17 16:45:00,78.1,17.1,29.91,WNW,289,0.0,3.1,10,0.00,,CLR,0.00,VWS V14.00,2013-05-17 20:45:00,
2013-05-17 16:50:00,77.5,16.7,29.91,SE,134,0.0,0.0,10,0.00,,CLR,0.00,VWS V14.00,2013-05-17 20:50:00,
2013-05-17 16:55:00,77.4,16.6,29.91,WNW,301,3.6,4.0,10,0.00,,CLR,0.00,VWS V14.00,2013-05-17 20:55:00,
2013-05-17 17:00:00,77.0,16.3,29.91,West,265,4.0,4.0,10,0.00,,CLR,0.00,VWS V14.00,2013-05-17 21:00:00,
2013-05-17 17:05:00,76.8,16.2,29.91,WSW,255,3.1,4.0,10,0.00,,CLR,0.00,VWS V14.00,2013-05-17 21:05:00,
2013-05-17 17:10:00,76.6,16.0,29.91,WNW,286,4.0,4.0,10,0.00,,CLR,0.00,VWS V14.00,2013-05-17 21:10:00,
2013-05-17 17:15:00,76.5,15.9,29.91,West,265,2.7,3.1,10,0.00,,CLR,0.00,VWS V14.00,2013-05-17 21:15:00,
2013-05-17 17:20:00,75.6,15.2,29.91,North,11,0.0,0.0,10,0.00,,CLR,0.00,VWS V14.00,2013-05-17 21:20:00,
2013-05-17 17:25:00,74.5,14.4,29.94,NW,316,3.1,3.1,10,0.00,,CLR,0.00,VWS V14.00,2013-05-17 21:25:00,
2013-05-17 17:30:00,74.7,14.5,29.94,WNW,287,3.1,3.6,10,0.00,,CLR,0.00,VWS V14.00,2013-05-17 21:30:00,
2013-05-17 17:36:00,75.0,14.8,29.94,West,281,3.1,5.4,10,0.00,,CLR,0.00,VWS V14.00,2013-05-17 21:36:00,
2013-05-17 17:41:00,75.0,14.8,29.94,WNW,303,3.1,4.0,10,0.00,,CLR,0.00,VWS V14.00,2013-05-17 21:41:00,
2013-05-17 17:46:00,75.0,14.8,29.94,WSW,240,0.0,4.5,10,0.00,,CLR,0.00,VWS V14.00,2013-05-17 21:46:00,
2013-05-17 17:51:00,74.3,14.2,29.94,SW,230,0.0,4.9,10,0.00,,CLR,0.00,VWS V14.00,2013-05-17 21:51:00,
2013-05-17 17:56:00,72.7,13.0,29.94,NNW,333,4.0,4.0,10,0.00,,CLR,0.00,VWS V14.00,2013-05-17 21:56:00,
2013-05-17 18:01:00,71.2,11.9,29.94,NW,304,3.6,3.6,10,0.00,,CLR,0.00,VWS V14.00,2013-05-17 22:01:00,
2013-05-17 18:06:00,70.5,11.4,29.94,WNW,297,3.6,3.6,10,0.00,,CLR,0.00,VWS V14.00,2013-05-17 22:06:00,
2013-05-17 18:11:00,70.0,10.9,29.94,NW,320,0.0,0.0,10,0.00,,CLR,0.00,VWS V14.00,2013-05-17 22:11:00,
2013-05-17 18:16:00,69.6,10.7,29.94,WNW,294,0.0,0.0,10,0.00,,CLR,0.00,VWS V14.00,2013-05-17 22:16:00,
2013-05-17 18:21:00,69.4,10.5,29.94,East,80,0.0,2.7,10,0.00,,CLR,0.00,VWS V14.00,2013-05-17 22:21:00,
2013-05-17 18:26:00,69.4,10.5,29.94,NW,317,0.0,0.0,10,0.00,,CLR,0.00,VWS V14.00,2013-05-17 22:26:00,
2013-05-17 18:31:00,69.4,10.5,29.94,WNW,296,2.7,4.0,10,0.00,,CLR,0.00,VWS V14.00,2013-05-17 22:31:00,
2013-05-17 18:36:00,69.4,10.5,29.94,NE,35,0.0,3.1,10,0.00,,CLR,0.00,VWS V14.00,2013-05-17 22:36:00,
2013-05-17 18:41:00,69.3,10.4,29.94,North,0,0.0,0.0,10,0.00,,CLR,0.00,VWS V14.00,2013-05-17 22:41:00,
2013-05-17 18:46:00,69.1,10.3,29.94,WSW,240,0.0,0.0,10,0.00,,CLR,0.00,VWS V14.00,2013-05-17 22:46:00,
2013-05-17 18:51:00,68.9,10.1,29.94,SW,226,0.0,0.0,10,0.00,,CLR,0.00,VWS V14.00,2013-05-17 22:51:00,
2013-05-17 18:56:00,68.9,10.1,29.94,WNW,284,3.6,4.9,10,0.00,,CLR,0.00,VWS V14.00,2013-05-17 22:56:00,
2013-05-17 19:01:00,68.7,10.0,29.94,West,264,0.0,0.0,10,0.00,,CLR,0.00,VWS V14.00,2013-05-17 23:01:00,
2013-05-17 19:06:00,68.5,9.8,29.94,West,264,0.0,0.0,10,0.00,,CLR,0.00,VWS V14.00,2013-05-17 23:06:00,
2013-05-17 19:11:00,68.2,9.6,29.97,NW,305,0.0,0.0,10,0.00,,CLR,0.00,VWS V14.00,2013-05-17 23:11:00,
2013-05-17 19:16:00,68.0,9.4,29.97,WSW,239,0.0,0.0,10,0.00,,CLR,0.00,VWS V14.00,2013-05-17 23:16:00,
2013-05-17 19:21:00,67.8,9.3,29.97,WNW,294,0.0,0.0,10,0.00,,CLR,0.00,VWS V14.00,2013-05-17 23:21:00,
2013-05-17 19:26:00,67.6,9.1,29.97,WNW,292,0.0,0.0,10,0.00,,CLR,0.00,VWS V14.00,2013-05-17 23:26:00,
2013-05-17 19:31:00,67.3,8.9,29.97,WNW,292,0.0,0.0,10,0.00,,CLR,0.00,VWS V14.00,2013-05-17 23:31:00,
2013-05-17 19:37:00,67.1,8.7,29.97,WNW,292,0.0,0.0,10,0.00,,CLR,0.00,VWS V14.00,2013-05-17 23:37:00,
2013-05-17 19:42:00,66.7,8.5,29.97,WNW,293,0.0,0.0,10,0.00,,CLR,0.00,VWS V14.00,2013-05-17 23:42:00,
2013-05-17 19:47:00,66.4,8.2,29.97,WNW,293,0.0,0.0,10,0.00,,CLR,0.00,VWS V14.00,2013-05-17 23:47:00,
2013-05-17 19:52:00,65.8,7.8,29.97,WNW,293,0.0,0.0,10,0.00,,CLR,0.00,VWS V14.00,2013-05-17 23:52:00,
2013-05-17 19:57:00,65.5,7.5,29.97,WNW,293,0.0,0.0,10,0.00,,CLR,0.00,VWS V14.00,2013-05-17 23:57:00,
2013-05-17 20:02:00,64.9,7.1,29.97,WNW,292,0.0,0.0,10,0.00,,CLR,0.00,VWS V14.00,2013-05-18 00:02:00,
2013-05-17 20:07:00,64.4,6.7,29.97,WNW,293,0.0,0.0,10,0.00,,CLR,0.00,VWS V14.00,2013-05-18 00:07:00,
2013-05-17 20:12:00,64.0,6.4,30.00,WNW,293,0.0,0.0,10,0.00,,CLR,0.00,VWS V14.00,2013-05-18 00:12:00,
2013-05-17 20:17:00,63.5,6.0,30.00,WNW,293,0.0,0.0,10,0.00,,CLR,0.00,VWS V14.00,2013-05-18 00:17:00,
2013-05-17 20:22:00,63.1,11.5,30.00,WNW,292,0.0,0.0,13,0.00,,CLR,0.00,VWS V14.00,2013-05-18 00:22:00,
2013-05-17 20:27:00,62.8,11.2,30.00,WNW,292,0.0,0.0,13,0.00,,CLR,0.00,VWS V14.00,2013-05-18 00:27:00,
2013-05-17 20:32:00,62.4,10.9,30.00,WNW,292,0.0,0.0,13,0.00,,CLR,0.00,VWS V14.00,2013-05-18 00:32:00,
2013-05-17 20:37:00,62.1,15.4,30.00,WNW,293,0.0,0.0,16,0.00,,CLR,0.00,VWS V14.00,2013-05-18 00:37:00,
2013-05-17 20:42:00,61.7,10.4,30.00,WNW,293,0.0,0.0,13,0.00,,CLR,0.00,VWS V14.00,2013-05-18 00:42:00,
2013-05-17 20:47:00,61.5,14.9,30.00,WNW,293,0.0,0.0,16,0.00,,CLR,0.00,VWS V14.00,2013-05-18 00:47:00,
2013-05-17 20:52:00,61.3,14.8,30.00,WNW,293,0.0,0.0,16,0.00,,CLR,0.00,VWS V14.00,2013-05-18 00:52:00,
2013-05-17 20:57:00,61.2,14.6,30.00,WNW,293,0.0,0.0,16,0.00,,CLR,0.00,VWS V14.00,2013-05-18 00:57:00,
2013-05-17 21:02:00,60.8,18.3,30.00,WNW,293,0.0,0.0,19,0.00,,CLR,0.00,VWS V14.00,2013-05-18 01:02:00,
2013-05-17 21:07:00,60.6,14.2,30.00,WNW,293,0.0,0.0,16,0.00,,CLR,0.00,VWS V14.00,2013-05-18 01:07:00,
2013-05-17 21:12:00,60.3,13.9,30.00,WNW,293,0.0,0.0,16,0.00,,CLR,0.00,VWS V14.00,2013-05-18 01:12:00,
2013-05-17 21:17:00,60.1,13.8,30.00,WNW,293,0.0,0.0,16,0.00,,CLR,0.00,VWS V14.00,2013-05-18 01:17:00,
2013-05-17 21:22:00,59.9,17.6,30.00,WNW,293,0.0,0.0,19,0.00,,CLR,0.00,VWS V14.00,2013-05-18 01:22:00,
2013-05-17 21:27:00,59.5,17.3,30.03,WNW,293,0.0,0.0,19,0.00,,CLR,0.00,VWS V14.00,2013-05-18 01:27:00,
2013-05-17 21:33:00,59.2,20.4,30.03,WNW,292,0.0,0.0,22,0.00,,CLR,0.00,VWS V14.00,2013-05-18 01:33:00,
2013-05-17 21:38:00,58.8,22.1,30.03,WNW,292,0.0,0.0,24,0.00,,CLR,0.00,VWS V14.00,2013-05-18 01:38:00,
2013-05-17 21:43:00,58.5,21.8,30.03,WNW,292,0.0,0.0,24,0.00,,CLR,0.00,VWS V14.00,2013-05-18 01:43:00,
2013-05-17 21:48:00,58.5,21.8,30.03,WNW,292,0.0,0.0,24,0.00,,CLR,0.00,VWS V14.00,2013-05-18 01:48:00,
2013-05-17 21:53:00,58.3,21.7,30.03,WNW,292,0.0,0.0,24,0.00,,CLR,0.00,VWS V14.00,2013-05-18 01:53:00,
2013-05-17 21:58:00,58.1,22.5,30.03,WNW,292,0.0,0.0,25,0.00,,CLR,0.00,VWS V14.00,2013-05-18 01:58:00,
2013-05-17 22:03:00,57.9,22.3,30.03,WNW,292,0.0,0.0,25,0.00,,CLR,0.00,VWS V14.00,2013-05-18 02:03:00,
2013-05-17 22:08:00,57.7,23.1,30.03,WNW,292,0.0,0.0,26,0.00,,CLR,0.00,VWS V14.00,2013-05-18 02:08:00,
2013-05-17 22:13:00,57.6,23.9,30.03,WNW,293,0.0,0.0,27,0.00,,CLR,0.00,VWS V14.00,2013-05-18 02:13:00,
2013-05-17 22:18:00,57.2,23.5,30.03,WNW,292,0.0,0.0,27,0.00,,CLR,0.00,VWS V14.00,2013-05-18 02:18:00,
2013-05-17 22:23:00,57.0,23.4,30.03,WNW,293,0.0,0.0,27,0.00,,CLR,0.00,VWS V14.00,2013-05-18 02:23:00,
2013-05-17 22:28:00,56.8,23.2,30.03,WNW,292,0.0,0.0,27,0.00,,CLR,0.00,VWS V14.00,2013-05-18 02:28:00,
2013-05-17 22:33:00,56.7,23.1,30.03,WNW,292,0.0,0.0,27,0.00,,CLR,0.00,VWS V14.00,2013-05-18 02:33:00,
2013-05-17 22:38:00,56.5,23.8,30.03,WNW,292,0.0,0.0,28,0.00,,CLR,0.00,VWS V14.00,2013-05-18 02:38:00,
2013-05-17 22:43:00,56.1,24.3,30.03,WNW,292,0.0,0.0,29,0.00,,CLR,0.00,VWS V14.00,2013-05-18 02:43:00,
2013-05-17 22:48:00,55.8,24.0,30.03,WNW,292,0.0,0.0,29,0.00,,CLR,0.00,VWS V14.00,2013-05-18 02:48:00,
2013-05-17 22:53:00,55.4,25.3,30.03,WNW,292,0.0,0.0,31,0.00,,CLR,0.00,VWS V14.00,2013-05-18 02:53:00,
2013-05-17 22:58:00,55.2,25.9,30.03,WNW,292,0.0,0.0,32,0.00,,CLR,0.00,VWS V14.00,2013-05-18 02:58:00,
2013-05-17 23:03:00,55.0,26.5,30.03,WNW,292,0.0,0.0,33,0.00,,CLR,0.00,VWS V14.00,2013-05-18 03:03:00,
2013-05-17 23:09:00,54.9,27.0,30.03,WNW,292,0.0,0.0,34,0.00,,CLR,0.00,VWS V14.00,2013-05-18 03:09:00,
2013-05-17 23:14:00,54.7,27.6,30.03,WNW,292,0.0,0.0,35,0.00,,CLR,0.00,VWS V14.00,2013-05-18 03:14:00,
2013-05-17 23:19:00,54.5,27.4,30.03,WNW,292,0.0,0.0,35,0.00,,CLR,0.00,VWS V14.00,2013-05-18 03:19:00,
2013-05-17 23:24:00,54.3,28.0,30.03,WNW,292,0.0,0.0,36,0.00,,CLR,0.00,VWS V14.00,2013-05-18 03:24:00,
2013-05-17 23:29:00,54.1,27.8,30.03,WNW,292,0.0,0.0,36,0.00,,CLR,0.00,VWS V14.00,2013-05-18 03:29:00,
2013-05-17 23:34:00,53.8,27.5,30.03,WNW,293,0.0,0.0,36,0.00,,CLR,0.00,VWS V14.00,2013-05-18 03:34:00,
2013-05-17 23:39:00,53.6,27.3,30.03,WNW,292,0.0,0.0,36,0.00,,CLR,0.00,VWS V14.00,2013-05-18 03:39:00,
2013-05-17 23:44:00,53.2,27.0,30.03,WNW,292,0.0,0.0,36,0.00,,CLR,0.00,VWS V14.00,2013-05-18 03:44:00,
2013-05-17 23:49:00,53.1,26.8,30.03,WNW,293,0.0,0.0,36,0.00,,CLR,0.00,VWS V14.00,2013-05-18 03:49:00,
2013-05-17 23:54:00,52.9,27.3,30.03,WNW,292,0.0,0.0,37,0.00,,CLR,0.00,VWS V14.00,2013-05-18 03:54:00,
2013-05-17 23:59:00,52.7,27.2,30.06,WNW,292,0.0,0.0,37,0.00,,CLR,0.00,VWS V14.00,2013-05-18 03:59:00,